Location: Unspecified
(0.0000°N, 0.0000°E)
Time: 15:39:30
(UTC+00:00)

Hubble Space Telescope - Pass Details

Date: 27 April 2017
Orbit: 538 x 541 km, 28.5° (Epoch: 21 May)

Event Time Altitude Azimuth Distance (km) Brightness Sun altitude
Rises 19:44:12 0° 308° (NW) 2,674 5.4 -25.8°
Reaches altitude 10° 19:46:29 10° 312° (NW) 1,785 4.2 -26.3°
Enters shadow 19:49:07 35° 332° (NNW) 876 2.1 -27.0°
